Hit Tracker is now ESPN Home Run Tracker! Hit Tracker founder Greg Rybarczyk is now collaborating with the ESPN Stats & Information Group to continue tracking all MLB home runs, and helping baseball fans know "How Far It Really Went!™" Please credit any information on this site to ESPN Stats & Information Group. For more information and analysis on home runs, please contact founder Greg Rybarczyk. E-Mail ESPN Home Run Tracker
Main Page | Ballparks | Park Overlays | Glossary | Highlight Homers | Feedback | Bio | 3 Types of HR's | AAA Home Run Derby Last Updated: April 29, 2016, 11:23 pm PST
If you want to know "How Far It Really Went!", then you've come to the right place! Welcome to the ESPN Home Run Tracker, where you can find accurate, transparently verifiable distances for every home run hit in MLB games. Please also check out the ESPN MLB Scoreboard throughout the 2016 season! Contact us at grybar@hittrackeronline.com.
Season:
Ballpark detail for Chase Field
Ballpark # of Home Runs HR per game Avg.
True
Distance
Avg.
Speed
Off
Bat
Avg.
Std.
Dist.
Chase Field 50 3.33 405.3 105.6 401.6

Scatter Plot of Home Runs Chase Field
 Overlay Ballpark:
Without range rings   With range rings

2016 Season Home Runs for Chase Field
Click headers to sort
Date Video Path Hitter Hitter
Team
 ^
Pitcher Pitcher
Team
INN Ballpark Type/
Luck
True
Dist.
Speed
Off
Bat
Elev.
Angle
Horiz.
Angle
Apex Impact Due To: Std.
Dist.
#
Parks
Wind Temp. Alt.
04/04/16 Video View Lamb, Jake ARI De La Rosa, Jorge COL 4 Chase Field JE 377 107.4 23.9 56.7 59 0 1 2 375 30
04/05/16 Video View Goldschmidt, Paul ARI Bettis, Chad COL 1 Chase Field PL 445 107.0 28.3 83.8 108 0 3 3 440 30
04/05/16 Video View Segura, Jean ARI Bettis, Chad COL 3 Chase Field PL 413 103.5 32.8 103.4 122 0 3 4 406 30
04/06/16 Video View Ahmed, Nick ARI McGee, Jake COL 9 Chase Field PL 411 102.3 28.5 100.7 95 0 1 3 407 30
04/07/16 Video View Segura, Jean ARI Lackey, John CHC 1 Chase Field PL 383 98.4 32.0 73.5 102 0 1 3 379 24
04/07/16 Video View Segura, Jean ARI Lackey, John CHC 2 Chase Field ITP 390 98.7 26.7 97.2 80 0 1 2 388 2
04/10/16 Video View Goldschmidt, Paul ARI Arrieta, Jake CHC 4 Chase Field PL 405 103.6 30.4 109.8 100 0 0 3 401 30
04/10/16 Video View Brito, Socrates ARI Arrieta, Jake CHC 5 Chase Field JE 379 105.9 24.1 62.5 61 0 0 1 378 29
04/22/16 Video View Peralta, David ARI Niese, Jonathon PIT 2 Chase Field JE 379 97.0 34.1 108.0 108 5 4 4 367 12
04/22/16 Video View Castillo, Welington ARI Niese, Jonathon PIT 4 Chase Field PL 378 101.0 37.5 110.0 136 1 6 6 365 20
04/22/16 Video View Castillo, Welington ARI Watson, Tony PIT 8 Chase Field ND 442 117.1 25.9 123.8 81 -1 2 3 439 30
04/23/16 Video View Peralta, David ARI Nicasio, Juan PIT 3 Chase Field PL 394 100.0 29.2 76.3 92 0 1 2 391 26
04/23/16 Video View Herrmann, Chris ARI Schugel, A.J. PIT 8 Chase Field PL 399 106.3 26.9 62.9 77 0 0 2 397 30
04/24/16 Video View Goldschmidt, Paul ARI Liriano, Francisco PIT 1 Chase Field JE 365 96.6 31.9 66.9 92 0 1 3 362 22
04/24/16 Video View Castillo, Welington ARI Liriano, Francisco PIT 3 Chase Field JE 348 103.5 23.3 128.1 51 0 0 1 346 17
04/24/16 Video View Tomas, Yasmany ARI Vogelsong, Ryan PIT 8 Chase Field PL 381 102.2 27.0 65.4 74 0 0 1 379 29
04/24/16 Video View Goldschmidt, Paul ARI Melancon, Mark PIT 9 Chase Field JE 370 98.7 28.3 67.6 77 0 0 2 368 22
04/25/16 Video View Segura, Jean ARI Siegrist, Kevin STL 6 Chase Field PL 397 112.1 21.3 112.1 56 0 0 1 396 30
04/26/16 Video View Lamb, Jake ARI Lyons, Tyler STL 9 Chase Field JE 394 102.7 24.5 77.8 71 0 0 1 394 21
04/26/16 Video View Tomas, Yasmany ARI Lyons, Tyler STL 9 Chase Field JE 379 103.0 24.2 71.0 64 0 0 1 378 21
04/27/16 Video View Goldschmidt, Paul ARI Wainwright, Adam STL 4 Chase Field JE 422 103.1 31.9 94.4 122 0 2 4 416 27
04/27/16 Video View Drury, Brandon ARI Wainwright, Adam STL 2 Chase Field PL 405 109.4 21.8 104.8 61 0 0 0 404 30
04/28/16 Video View Herrmann, Chris ARI Wacha, Michael STL 2 Chase Field PL 400 101.3 27.8 77.0 87 1 1 2 397 27
04/28/16 Video View Drury, Brandon ARI Wacha, Michael STL 4 Chase Field ND 451 113.6 27.0 111.2 95 0 1 3 447 30
04/07/16 Video View Rizzo, Anthony CHC Delgado, Randall ARI 9 Chase Field JE 379 109.0 22.4 60.4 55 0 0 1 377 29
04/10/16 Video View Arrieta, Jake CHC Miller, Shelby ARI 2 Chase Field PL 442 107.1 27.7 97.5 104 0 0 3 439 30
04/10/16 Video View Soler, Jorge CHC Miller, Shelby ARI 6 Chase Field PL 399 100.5 31.7 102.7 109 0 1 4 395 27
04/04/16 Video View Story, Trevor COL Greinke, Zack ARI 3 Chase Field JE 368 97.7 30.5 65.3 85 0 1 2 364 25
04/04/16 Video View Gonzalez, Carlos COL Greinke, Zack ARI 3 Chase Field JE 415 119.3 17.6 78.5 48 0 0 1 414 27
04/04/16 Video View Story, Trevor COL Greinke, Zack ARI 4 Chase Field ND 428 107.1 29.7 107.1 107 0 1 3 424 30
04/04/16 Video View Arenado, Nolan COL Bracho, Silvino ARI 8 Chase Field PL 386 101.4 34.7 110.4 121 0 0 5 382 30
04/05/16 Video View Story, Trevor COL Miller, Shelby ARI 4 Chase Field ND 436 107.9 29.9 105.3 112 0 3 4 430 30
04/05/16 Video View LeMahieu, DJ COL Miller, Shelby ARI 4 Chase Field PL 424 108.7 23.1 101.0 72 0 1 1 422 30
04/05/16 Video View Hundley, Nick COL Miller, Shelby ARI 4 Chase Field PL 386 105.9 25.9 120.9 68 0 1 2 384 30
04/06/16 Video View Story, Trevor COL Corbin, Patrick ARI 1 Chase Field PL 434 110.2 22.2 98.1 72 0 0 1 433 30
04/06/16 Video View LeMahieu, DJ COL Corbin, Patrick ARI 3 Chase Field ND 419 108.7 25.5 109.8 79 0 1 2 417 30
04/06/16 Video View Raburn, Ryan COL Corbin, Patrick ARI 7 Chase Field JE 367 96.8 33.9 111.3 104 0 2 4 362 17
04/29/16 Video View Story, Trevor COL Ray, Robbie ARI 5 Chase Field ND 445 115.6 21.6 103.1 69 0 1 1 443 30
04/29/16 Video View Arenado, Nolan COL Ray, Robbie ARI 5 Chase Field ND 416 107.7 32.4 116.7 114 0 2 4 410 30
04/29/16 Video View Hundley, Nick COL Ray, Robbie ARI 4 Chase Field JE 382 112.9 21.3 119.3 53 0 -7 1 387 30
04/29/16 Video View Raburn, Ryan COL Ray, Robbie ARI 4 Chase Field ND 418 106.3 32.2 109.8 118 0 2 4 412 30
04/22/16 Video View Polanco, Gregory PIT Corbin, Patrick ARI 2 Chase Field PL 457 108.8 25.9 92.6 97 1 2 3 451 30
04/22/16 Video View Rodriguez, Sean PIT Corbin, Patrick ARI 2 Chase Field ND 468 113.1 32.5 101.4 147 5 6 6 451 30
04/22/16 Video View Mercer, Jordy PIT Corbin, Patrick ARI 3 Chase Field ND 461 114.6 23.8 102.8 84 0 2 2 457 30
04/23/16 Video View Rodriguez, Sean PIT De La Rosa, Rubby ARI 2 Chase Field JE 365 96.6 31.8 67.0 91 0 1 3 362 22
04/25/16 Video View Hazelbaker, Jeremy STL Greinke, Zack ARI 5 Chase Field JE 372 100.1 26.4 110.9 70 0 0 1 371 17
04/25/16 Video View Carpenter, Matt STL Greinke, Zack ARI 7 Chase Field PL 405 105.1 24.6 76.0 73 0 1 1 403 29
04/26/16 Video View Piscotty, Stephen STL Leone, Dominic ARI 7 Chase Field PL 444 106.7 26.8 92.3 100 1 0 3 440 30
04/26/16 Video View Moss, Brandon STL Miller, Shelby ARI 5 Chase Field PL 399 103.7 29.0 67.0 89 0 0 2 396 30
04/27/16 Video View Diaz, Aledmys STL Corbin, Patrick ARI 5 Chase Field ND 441 113.6 28.7 120.2 97 0 2 3 436 30


About HitTracker | Contact Us
© 2006-2016 HitTrackerOnline